RYR1488 LIEE-LIRP

Flight info

Callsign RYR1488
Flight time 0h 53m
Altitude 34000
Route KOVAS DCT DEXUL DCT LABOM DCT IBROS DCT NEMIT Q125 ELB
Aircraft B738/M-SDE2E3FGHIRWXY/LB1

Departure

Time 2026-04-30 19:42
Airport Cagliari Elmas Airport (LIEE)

Arrival

Time 2026-04-30 20:35
Airport Pisa International Airport (LIRP)
Time Latitude Longitude Altitude Speed Heading
2026-04-30 19:28 39.25319 9.05800 20 ft 0 kts 113°
2026-04-30 19:35 39.25323 9.05788 20 ft 2 kts 125°
2026-04-30 19:35 39.25333 9.05774 20 ft 2 kts 142°
2026-04-30 19:35 39.25346 9.05765 20 ft 2 kts 159°
2026-04-30 19:35 39.25360 9.05760 20 ft 2 kts 176°
2026-04-30 19:36 39.25375 9.05761 20 ft 2 kts 192°
2026-04-30 19:36 39.25389 9.05767 20 ft 2 kts 210°
2026-04-30 19:36 39.25406 9.05786 20 ft 0 kts 233°
2026-04-30 19:38 39.25396 9.05769 20 ft 7 kts 232°
2026-04-30 19:39 39.25354 9.05700 20 ft 6 kts 239°
2026-04-30 19:39 39.25364 9.05640 20 ft 11 kts 300°
2026-04-30 19:39 39.25398 9.05518 20 ft 16 kts 273°
2026-04-30 19:39 39.25452 9.05363 20 ft 22 kts 310°
2026-04-30 19:40 39.25556 9.05218 20 ft 24 kts 312°
2026-04-30 19:40 39.25696 9.05050 20 ft 30 kts 317°
2026-04-30 19:40 39.25763 9.04880 20 ft 18 kts 234°
2026-04-30 19:40 39.25715 9.04850 20 ft 0 kts 189°
2026-04-30 19:41 39.25713 9.04850 20 ft 1 kts 189°
2026-04-30 19:41 39.25606 9.04897 20 ft 44 kts 142°
2026-04-30 19:41 39.25174 9.05408 20 ft 121 kts 137°
2026-04-30 19:41 39.24398 9.06327 132 ft 173 kts 135°
2026-04-30 19:42 39.23532 9.07479 756 ft 190 kts 129°
2026-04-30 19:42 39.22670 9.08824 1595 ft 197 kts 125°
2026-04-30 19:42 39.21737 9.10057 2218 ft 207 kts 138°
2026-04-30 19:42 39.20612 9.11268 2869 ft 213 kts 134°
2026-04-30 19:43 39.19369 9.12295 3524 ft 224 kts 161°
2026-04-30 19:43 39.17783 9.12301 4147 ft 236 kts 194°
2026-04-30 19:43 39.16290 9.11330 4771 ft 246 kts 218°
2026-04-30 19:44 39.14324 9.07701 5993 ft 258 kts 258°
2026-04-30 19:44 39.14281 9.05375 6618 ft 263 kts 282°
2026-04-30 19:44 39.14882 9.03144 7232 ft 269 kts 299°
2026-04-30 19:44 39.16042 9.01309 7835 ft 271 kts 322°
2026-04-30 19:45 39.17758 9.00344 8451 ft 273 kts 349°
2026-04-30 19:45 39.19651 9.00342 9069 ft 276 kts
2026-04-30 19:45 39.21570 9.00617 9682 ft 281 kts
2026-04-30 19:45 39.23540 9.00917 10300 ft 288 kts
2026-04-30 19:46 39.25534 9.01214 10913 ft 294 kts
2026-04-30 19:46 39.27584 9.01512 11530 ft 301 kts
2026-04-30 19:46 39.29689 9.01817 12148 ft 308 kts
2026-04-30 19:46 39.31839 9.02129 12768 ft 315 kts
2026-04-30 19:47 39.34056 9.02453 13394 ft 322 kts
2026-04-30 19:47 39.35555 9.02672 13807 ft 327 kts
2026-04-30 19:47 39.38576 9.03113 14619 ft 336 kts
2026-04-30 19:47 39.40950 9.03459 15244 ft 343 kts
2026-04-30 19:48 39.43311 9.03805 15852 ft 350 kts
2026-04-30 19:48 39.45757 9.04164 16471 ft 355 kts
2026-04-30 19:48 39.48220 9.04525 17082 ft 361 kts
2026-04-30 19:48 39.50754 9.04898 17702 ft 366 kts
2026-04-30 19:49 39.53268 9.05267 18319 ft 370 kts
2026-04-30 19:49 39.58441 9.06030 19601 ft 377 kts
2026-04-30 19:49 39.61024 9.06407 20234 ft 380 kts
2026-04-30 19:50 39.63655 9.06800 20864 ft 383 kts
2026-04-30 19:50 39.66299 9.07392 21496 ft 387 kts
2026-04-30 19:50 39.68927 9.08187 22130 ft 390 kts
2026-04-30 19:50 39.71539 9.09069 22763 ft 391 kts
2026-04-30 19:51 39.74186 9.09993 23400 ft 391 kts
2026-04-30 19:51 39.76787 9.10901 24034 ft 391 kts
2026-04-30 19:51 39.79393 9.11807 24678 ft 390 kts
2026-04-30 19:51 39.82022 9.12715 25316 ft 388 kts
2026-04-30 19:52 39.84631 9.13607 25825 ft 389 kts
2026-04-30 19:52 39.87243 9.14611 26343 ft 393 kts 11°
2026-04-30 19:52 39.89809 9.15794 26857 ft 396 kts 13°
2026-04-30 19:52 39.92393 9.17086 27371 ft 397 kts 13°
2026-04-30 19:53 39.94933 9.18389 27880 ft 396 kts 13°
2026-04-30 19:53 39.97512 9.19716 28401 ft 396 kts 13°
2026-04-30 19:53 40.00042 9.21011 28913 ft 394 kts 12°
2026-04-30 19:53 40.02584 9.22299 29424 ft 392 kts 11°
2026-04-30 19:54 40.05139 9.23455 29938 ft 387 kts
2026-04-30 19:54 40.07716 9.24488 30460 ft 383 kts
2026-04-30 19:54 40.10246 9.25461 30970 ft 380 kts
2026-04-30 19:54 40.12788 9.26440 31492 ft 377 kts
2026-04-30 19:55 40.15267 9.27416 32003 ft 373 kts
2026-04-30 19:55 40.17733 9.28406 32517 ft 369 kts
2026-04-30 19:55 40.20168 9.29401 33033 ft 364 kts
2026-04-30 19:55 40.22554 9.30389 33551 ft 358 kts
2026-04-30 19:56 40.24911 9.31375 34026 ft 354 kts
2026-04-30 19:56 40.27269 9.32360 34132 ft 358 kts
2026-04-30 19:56 40.32135 9.34372 34129 ft 372 kts
2026-04-30 19:57 40.37211 9.36478 34129 ft 386 kts
2026-04-30 19:57 40.42423 9.38650 34134 ft 400 kts
2026-04-30 19:58 40.47846 9.40909 34129 ft 413 kts
2026-04-30 19:58 40.53421 9.43241 34134 ft 427 kts
2026-04-30 19:59 40.59145 9.45649 34132 ft 440 kts
2026-04-30 19:59 40.65054 9.48147 34134 ft 453 kts
2026-04-30 20:00 40.68087 9.49435 34137 ft 455 kts
2026-04-30 20:00 40.74073 9.51992 34136 ft 455 kts
2026-04-30 20:01 40.83119 9.55855 34139 ft 455 kts
2026-04-30 20:01 40.89141 9.58431 34139 ft 452 kts
2026-04-30 20:02 40.98104 9.62258 34139 ft 452 kts
2026-04-30 20:03 41.07117 9.66125 34139 ft 453 kts
2026-04-30 20:03 41.13120 9.68702 34138 ft 457 kts
2026-04-30 20:04 41.19183 9.71312 34142 ft 454 kts
2026-04-30 20:05 41.28184 9.75199 34136 ft 454 kts
2026-04-30 20:05 41.37194 9.79100 34140 ft 453 kts
2026-04-30 20:06 41.43204 9.81706 34146 ft 454 kts
2026-04-30 20:06 41.49193 9.84310 34142 ft 453 kts
2026-04-30 20:07 41.55206 9.86930 34146 ft 453 kts
2026-04-30 20:08 41.64241 9.90872 33605 ft 458 kts 10°
2026-04-30 20:08 41.67276 9.92196 32991 ft 456 kts 11°
2026-04-30 20:08 41.70264 9.93505 32390 ft 453 kts 11°
2026-04-30 20:08 41.73230 9.94808 31790 ft 450 kts 11°
2026-04-30 20:09 41.76173 9.96103 31189 ft 447 kts 12°
2026-04-30 20:09 41.79133 9.97407 30586 ft 443 kts 13°
2026-04-30 20:09 41.84924 9.99963 29261 ft 436 kts 13°
2026-04-30 20:10 41.90659 10.02503 27927 ft 429 kts 13°
2026-04-30 20:10 41.93481 10.03753 27259 ft 425 kts 14°
2026-04-30 20:10 41.96243 10.04977 26597 ft 421 kts 14°
2026-04-30 20:11 42.01778 10.07429 25258 ft 414 kts 14°
2026-04-30 20:11 42.04496 10.08635 24600 ft 410 kts 14°
2026-04-30 20:11 42.07170 10.09824 23950 ft 406 kts 14°
2026-04-30 20:12 42.12508 10.12200 22666 ft 399 kts 14°
2026-04-30 20:12 42.15147 10.13376 22015 ft 396 kts 15°
2026-04-30 20:12 42.17744 10.14507 21377 ft 392 kts 12°
2026-04-30 20:13 42.20370 10.15277 20751 ft 387 kts
2026-04-30 20:13 42.23037 10.15739 20111 ft 383 kts
2026-04-30 20:13 42.25673 10.16088 19473 ft 380 kts
2026-04-30 20:13 42.28291 10.16430 18837 ft 377 kts
2026-04-30 20:14 42.30863 10.16795 18212 ft 375 kts
2026-04-30 20:14 42.33437 10.17200 17602 ft 372 kts
2026-04-30 20:14 42.35981 10.17637 16991 ft 369 kts
2026-04-30 20:14 42.38546 10.18104 16367 ft 367 kts
2026-04-30 20:15 42.41050 10.18576 15767 ft 364 kts
2026-04-30 20:15 42.43527 10.19050 15162 ft 361 kts
2026-04-30 20:15 42.46012 10.19529 14521 ft 359 kts
2026-04-30 20:15 42.48455 10.20000 13905 ft 356 kts
2026-04-30 20:16 42.50889 10.20468 13286 ft 354 kts
2026-04-30 20:16 42.53324 10.20936 12682 ft 351 kts
2026-04-30 20:16 42.55711 10.21395 12062 ft 349 kts
2026-04-30 20:16 42.58131 10.21861 11446 ft 346 kts
2026-04-30 20:17 42.60466 10.22311 11159 ft 334 kts
2026-04-30 20:17 42.62709 10.22743 11177 ft 323 kts
2026-04-30 20:17 42.64932 10.23173 11183 ft 321 kts
2026-04-30 20:17 42.67155 10.23602 11169 ft 319 kts
2026-04-30 20:18 42.69344 10.24024 11183 ft 321 kts
2026-04-30 20:18 42.71578 10.24455 11158 ft 322 kts
2026-04-30 20:18 42.73785 10.24880 10921 ft 315 kts
2026-04-30 20:18 42.75917 10.25292 10674 ft 305 kts
2026-04-30 20:19 42.77974 10.25691 10432 ft 297 kts
2026-04-30 20:19 42.79321 10.25954 10266 ft 292 kts
2026-04-30 20:19 42.81957 10.26471 9935 ft 282 kts
2026-04-30 20:19 42.83844 10.26956 9778 ft 273 kts 12°
2026-04-30 20:20 42.85686 10.27588 9705 ft 270 kts 14°
2026-04-30 20:20 42.87499 10.28249 9629 ft 271 kts 14°
2026-04-30 20:20 42.89339 10.28903 9559 ft 271 kts 14°
2026-04-30 20:20 42.91157 10.29530 9486 ft 272 kts 14°
2026-04-30 20:21 42.92988 10.30151 9411 ft 271 kts 14°
2026-04-30 20:21 42.94818 10.30769 9348 ft 270 kts 14°
2026-04-30 20:21 42.96637 10.31386 9279 ft 270 kts 14°
2026-04-30 20:21 42.98464 10.32005 9194 ft 270 kts 14°
2026-04-30 20:22 43.00283 10.32622 9114 ft 269 kts 14°
2026-04-30 20:22 43.02102 10.33239 9045 ft 269 kts 14°
2026-04-30 20:22 43.03925 10.33857 8966 ft 268 kts 14°
2026-04-30 20:22 43.05739 10.34475 8898 ft 268 kts 14°
2026-04-30 20:23 43.07530 10.35084 8828 ft 269 kts 14°
2026-04-30 20:23 43.09347 10.35703 8747 ft 268 kts 14°
2026-04-30 20:23 43.11164 10.36323 8665 ft 268 kts 14°
2026-04-30 20:23 43.12994 10.36945 8595 ft 268 kts 14°
2026-04-30 20:24 43.14812 10.37565 8524 ft 268 kts 14°
2026-04-30 20:24 43.16638 10.38188 8444 ft 266 kts 14°
2026-04-30 20:24 43.18446 10.38805 8363 ft 267 kts 14°
2026-04-30 20:24 43.20245 10.39419 8297 ft 266 kts 14°
2026-04-30 20:25 43.23844 10.40650 8029 ft 268 kts 14°
2026-04-30 20:25 43.25661 10.41270 7720 ft 265 kts 15°
2026-04-30 20:26 43.29274 10.42085 7116 ft 265 kts 355°
2026-04-30 20:26 43.32816 10.40831 6517 ft 261 kts 347°
2026-04-30 20:26 43.34555 10.40207 6153 ft 261 kts 349°
2026-04-30 20:27 43.38091 10.39125 5401 ft 261 kts 351°
2026-04-30 20:27 43.41643 10.37958 4643 ft 264 kts 343°
2026-04-30 20:28 43.43928 10.34280 4248 ft 270 kts 277°
2026-04-30 20:28 43.44192 10.29360 3915 ft 252 kts 292°
2026-04-30 20:29 43.45827 10.25226 3338 ft 241 kts 314°
2026-04-30 20:30 43.49884 10.22285 2752 ft 203 kts 358°
2026-04-30 20:30 43.53336 10.24040 2750 ft 168 kts 35°
2026-04-30 20:31 43.55972 10.26696 2770 ft 142 kts 37°
2026-04-30 20:32 43.58282 10.29059 2275 ft 134 kts 37°
2026-04-30 20:32 43.59790 10.30568 1925 ft 135 kts 38°
2026-04-30 20:33 43.60529 10.31348 1812 ft 130 kts 37°
2026-04-30 20:33 43.61942 10.32844 1462 ft 132 kts 36°
2026-04-30 20:33 43.62697 10.33579 1250 ft 134 kts 36°
2026-04-30 20:34 43.64215 10.35104 874 ft 135 kts 38°
2026-04-30 20:34 43.65740 10.36647 452 ft 137 kts 38°
2026-04-30 20:35 43.66496 10.37437 240 ft 137 kts 39°
2026-04-30 20:35 43.67247 10.38232 60 ft 136 kts 39°
2026-04-30 20:35 43.68408 10.39449 11 ft 48 kts 36°
2026-04-30 20:36 43.68706 10.39755 11 ft 51 kts 37°
2026-04-30 20:36 43.68964 10.40023 12 ft 45 kts 37°
2026-04-30 20:36 43.69241 10.40242 13 ft 0 kts 308°
2026-04-30 20:37 43.69249 10.40234 13 ft 4 kts 334°
2026-04-30 20:37 43.69279 10.40239 13 ft 5 kts
2026-04-30 20:37 43.69334 10.40188 13 ft 10 kts 310°
2026-04-30 20:37 43.69338 10.40181 13 ft 0 kts 310°
2026-04-30 20:38 43.69356 10.40151 13 ft 6 kts 308°
2026-04-30 20:38 43.69369 10.40128 13 ft 0 kts 308°
2026-04-30 20:38 43.69406 10.40100 13 ft 15 kts 343°
2026-04-30 20:39 43.69552 10.40067 13 ft 22 kts 354°
2026-04-30 20:39 43.69643 10.40052 13 ft 0 kts 353°
2026-04-30 20:39 43.69655 10.40054 13 ft 4 kts 21°
2026-04-30 20:40 43.69755 10.40090 14 ft 0 kts
2026-04-30 20:40 43.69756 10.40090 14 ft 0 kts
2026-04-30 20:40 43.69758 10.40090 14 ft 1 kts 10°
2026-04-30 20:41 43.69759 10.40090 14 ft 0 kts 10°